Weather History for Whiteville, NC

Change the Weather History Date:

Tuesday, March 19, 2013

  Actual Average (KLBT) Record (KLBT)
Temperature  
Mean Temperature 58 °F 55 °F  
Max Temperature 69 °F 67 °F 80 °F (2012)
Min Temperature 48 °F 43 °F 33 °F (2006)
Degree Days  
Heating Degree Days 6 10  
Month to date heating degree days 242  
Since 1 July heating degree days 2472  
Cooling Degree Days 0 0  
Month to date cooling degree days 0  
Year to date cooling degree days 3  
Growing Degree Days 8 (Base 50)    
Moisture  
Dew Point 44 °F    
Average Humidity 72    
Maximum Humidity 99    
Minimum Humidity 26    
Precipitation  
Precipitation 0.38 in 0.11 in 0.18 in (2008)
Month to date precipitation 2.06  
Year to date precipitation 7.93  
Sea Level Pressure  
Sea Level Pressure 29.89 in    
Wind  
Wind Speed 5 mph (West)    
Max Wind Speed 10 mph    
Max Gust Speed 21 mph    
Visibility 8 miles    
Events Rain    
T = Trace of Precipitation, MM = Missing Value Source: NWS Daily Summary

Daily Weather History Graph

Daily Weather History Graph

Search for Another Location

Airport:

Trip Planner

Search our weather history database for the weather conditions in past years. The results will help you decide how hot, cold, wet, or windy it might be!

Date:

Astronomy

Mar. 19, 2013 Rise Set
Actual Time 7:19 AM EDT 7:25 PM EDT
Civil Twilight 6:54 AM EDT 7:50 PM EDT
Nautical Twilight 6:25 AM EDT 8:20 PM EDT
Astronomical Twilight 5:55 AM EDT 8:49 PM EDT
Moon 12:22 PM EDT (3/19) 1:57 AM EDT (3/19)
Length of Visible Light 12h 56m
Length of Day
12h 06m
Waxing Crescent, 49% of the Moon is Illuminated
Mar 19
Waxing Crescent
Mar 19
First Quarter
Mar 27
Full
Apr 3
Last Quarter
Apr 10
New

Hourly Weather History & Observations

Time (EDT) Temp. Dew Point Humidity Pressure Visibility Wind Dir Wind Speed Gust Speed Precip Events Conditions
12:15 AM 54.0 °F 49.3 °F 84% 29.93 in 7.0 mi WNW 8.1 mph - N/A Rain Light Rain
12:35 AM 49.3 °F 47.8 °F 95% 29.92 in 3.0 mi North 5.8 mph - 0.07 in Rain Heavy Rain
12:55 AM 48.4 °F 47.5 °F 97% 29.90 in 3.0 mi North 4.6 mph - 0.16 in Rain Heavy Rain
1:15 AM 48.2 °F 47.7 °F 98% 29.89 in 2.5 mi Calm Calm - 0.09 in Rain Heavy Rain
1:35 AM 48.6 °F 48.2 °F 99% 29.87 in 3.0 mi SE 3.5 mph - 0.15 in Rain Rain
1:55 AM 49.1 °F 48.7 °F 99% 29.84 in 3.0 mi ESE 5.8 mph - 0.19 in Rain Rain
2:15 AM 49.6 °F 49.3 °F 99% 29.81 in 4.0 mi SE 5.8 mph - 0.02 in Rain Light Rain
2:35 AM 50.9 °F 50.5 °F 99% 29.76 in 7.0 mi SSW 3.5 mph 20.7 mph 0.03 in Rain Light Rain
2:55 AM 51.8 °F 51.1 °F 97% 29.79 in 7.0 mi WNW 5.8 mph - 0.03 in   Scattered Clouds
3:15 AM 52.0 °F 51.3 °F 97% 29.79 in 7.0 mi Calm Calm - N/A   Scattered Clouds
3:35 AM 52.3 °F 51.6 °F 97% 29.80 in 10.0 mi WNW 4.6 mph - N/A   Clear
3:55 AM 52.2 °F 51.6 °F 98% 29.80 in 7.0 mi WNW 4.6 mph - N/A   Mostly Cloudy
4:15 AM 51.1 °F 50.2 °F 97% 29.80 in 7.0 mi West 4.6 mph - N/A   Overcast
4:35 AM 50.4 °F 49.6 °F 97% 29.82 in 5.0 mi West 5.8 mph - N/A   Overcast
4:55 AM 49.8 °F 49.3 °F 98% 29.83 in 1.8 mi West 3.5 mph - N/A   Overcast
5:15 AM 50.0 °F 49.5 °F 98% 29.83 in 1.5 mi WSW 3.5 mph - N/A   Overcast
5:35 AM 49.5 °F 49.3 °F 99% 29.83 in 1.5 mi West 3.5 mph - N/A   Overcast
5:55 AM 49.3 °F 49.1 °F 99% 29.83 in 2.0 mi West 5.8 mph - N/A   Overcast
6:15 AM 49.1 °F 48.7 °F 99% 29.84 in 2.0 mi West 4.6 mph - N/A   Overcast
6:35 AM 49.1 °F 48.7 °F 99% 29.84 in 2.5 mi West 3.5 mph - N/A   Overcast
6:55 AM 49.1 °F 48.7 °F 99% 29.85 in 1.8 mi West 4.6 mph - N/A   Overcast
7:15 AM 49.1 °F 48.9 °F 99% 29.87 in 2.0 mi West 3.5 mph - N/A   Overcast
7:35 AM 49.1 °F 48.4 °F 97% 29.89 in 5.0 mi West 5.8 mph - N/A   Overcast
7:55 AM 48.4 °F 47.7 °F 97% 29.89 in 3.0 mi West 5.8 mph - N/A   Overcast
8:15 AM 48.2 °F 47.3 °F 97% 29.90 in 4.0 mi West 3.5 mph - N/A   Overcast
8:35 AM 48.2 °F 47.1 °F 96% 29.90 in 4.0 mi West 4.6 mph - N/A   Overcast
8:55 AM 48.2 °F 46.9 °F 95% 29.89 in 5.0 mi West 3.5 mph - N/A   Overcast
9:15 AM 48.6 °F 46.9 °F 94% 29.90 in 7.0 mi West 5.8 mph - N/A   Overcast
9:35 AM 49.5 °F 47.7 °F 94% 29.90 in 10.0 mi WNW 4.6 mph - N/A   Overcast
9:55 AM 49.1 °F 47.1 °F 93% 29.90 in 7.0 mi Calm Calm - N/A   Overcast
10:15 AM 50.0 °F 47.3 °F 90% 29.91 in 10.0 mi West 4.6 mph - N/A   Overcast
10:35 AM 50.4 °F 47.1 °F 89% 29.91 in 10.0 mi West 6.9 mph - N/A   Overcast
10:55 AM 51.4 °F 47.5 °F 86% 29.91 in 10.0 mi WNW 4.6 mph - N/A   Overcast
11:15 AM 52.0 °F 47.5 °F 85% 29.93 in 10.0 mi West 5.8 mph - N/A   Overcast
11:35 AM 52.7 °F 47.5 °F 82% 29.93 in 10.0 mi West 8.1 mph - N/A   Overcast
11:55 AM 53.6 °F 47.5 °F 80% 29.93 in 10.0 mi West 6.9 mph - N/A   Mostly Cloudy
12:15 PM 54.7 °F 47.1 °F 76% 29.93 in 10.0 mi West 5.8 mph - N/A   Scattered Clouds
12:35 PM 56.5 °F 47.1 °F 71% 29.93 in 10.0 mi WNW 6.9 mph - N/A   Clear
12:55 PM 57.6 °F 47.5 °F 69% 29.92 in 10.0 mi WNW 6.9 mph - N/A   Clear
1:15 PM 59.2 °F 47.1 °F 64% 29.93 in 10.0 mi NW 4.6 mph - N/A   Clear
1:35 PM 60.3 °F 46.9 °F 61% 29.92 in 10.0 mi West 8.1 mph - N/A   Clear
1:55 PM 62.1 °F 47.1 °F 58% 29.90 in 10.0 mi WNW 8.1 mph - N/A   Clear
2:15 PM 62.8 °F 45.9 °F 54% 29.89 in 10.0 mi WNW 5.8 mph - N/A   Clear
2:35 PM 63.9 °F 46.0 °F 52% 29.88 in 10.0 mi West 6.9 mph - N/A   Clear
2:55 PM 65.1 °F 45.9 °F 50% 29.88 in 10.0 mi West 10.4 mph - N/A   Clear
3:15 PM 66.0 °F 45.1 °F 47% 29.88 in 10.0 mi West 4.6 mph - N/A   Clear
3:35 PM 66.9 °F 46.2 °F 47% 29.87 in 10.0 mi WSW 6.9 mph - N/A   Clear
3:55 PM 67.5 °F 44.1 °F 43% 29.87 in 10.0 mi West 6.9 mph - N/A   Clear
4:15 PM 68.2 °F 43.0 °F 40% 29.87 in 10.0 mi West 4.6 mph - N/A   Clear
4:35 PM 68.7 °F 40.1 °F 35% 29.87 in 10.0 mi West 8.1 mph - N/A   Clear
4:55 PM 69.3 °F 39.7 °F 34% 29.87 in 10.0 mi West 4.6 mph - N/A   Clear
5:15 PM 68.9 °F 38.7 °F 33% 29.88 in 10.0 mi West 9.2 mph - N/A   Clear
5:35 PM 69.3 °F 35.8 °F 29% 29.88 in 10.0 mi West 3.5 mph - N/A   Clear
5:55 PM 69.1 °F 33.6 °F 27% 29.88 in 10.0 mi West 9.2 mph - N/A   Clear
6:15 PM 68.9 °F 32.9 °F 26% 29.90 in 10.0 mi Calm Calm - N/A   Clear
6:35 PM 68.0 °F 32.2 °F 26% 29.90 in 10.0 mi West 6.9 mph - N/A   Clear
6:55 PM 66.7 °F 32.4 °F 28% 29.91 in 10.0 mi Calm Calm - N/A   Clear
7:15 PM 64.8 °F 33.4 °F 31% 29.91 in 10.0 mi Calm Calm - N/A   Clear
7:35 PM 62.2 °F 35.2 °F 37% 29.92 in 10.0 mi Calm Calm - N/A   Clear
7:55 PM 59.4 °F 38.3 °F 46% 29.93 in 10.0 mi Calm Calm - N/A   Clear
8:15 PM 56.5 °F 39.0 °F 52% 29.93 in 10.0 mi Calm Calm - N/A   Clear
8:35 PM 54.9 °F 39.0 °F 55% 29.94 in 10.0 mi Calm Calm - N/A   Clear
8:55 PM 53.2 °F 38.7 °F 58% 29.96 in 10.0 mi Calm Calm - N/A   Clear
9:15 PM 52.5 °F 37.4 °F 56% 29.97 in 10.0 mi Calm Calm - N/A   Clear
9:35 PM 52.3 °F 38.5 °F 59% 29.98 in 10.0 mi Calm Calm - N/A   Clear
9:55 PM 51.8 °F 36.9 °F 57% 29.98 in 10.0 mi Calm Calm - N/A   Clear
10:15 PM 50.5 °F 37.2 °F 60% 29.98 in 10.0 mi Calm Calm - N/A   Clear
10:35 PM 49.6 °F 36.1 °F 60% 29.98 in 10.0 mi Calm Calm - N/A   Clear
10:55 PM 48.9 °F 37.6 °F 65% 29.98 in 10.0 mi Calm Calm - N/A   Clear
11:15 PM 48.4 °F 38.3 °F 68% 29.99 in 10.0 mi Calm Calm - N/A   Clear
11:35 PM 51.6 °F 31.6 °F 46% 29.99 in 10.0 mi Calm Calm - N/A   Clear
11:55 PM 52.9 °F 28.9 °F 40% 30.00 in 10.0 mi Calm Calm - N/A   Clear